Regional Weather Roundup
Issued by NWS

Home | Current Version | Previous Version | Text Only | Print | Product List | Glossary Off
Versions: 1 2 3 4 5 6 7 8 9 10 11 12 13 14 15 16 17 18 19 20 21 22 23 24 25 26 27 28 29 30 31 32 33 34 35 36 37 38 39 40 41 42 43 44 45 46 47 48 49 50

000
ASUS43 KBIS 210259
RWRND

NORTH DAKOTA REGIONAL WEATHER ROUNDUP
NATIONAL WEATHER SERVICE BISMARCK ND
1000 PM CDT WED AUG 20 2014

NOTE: "FAIR" INDICATES FEW OR NO CLOUDS BELOW 12,000 FEET WITH NO
SIGNIFICANT WEATHER AND/OR OBSTRUCTIONS TO VISIBILITY.


NDZ001>003-009>011-017-210400-
NORTHWEST NORTH DAKOTA

CITY           SKY/WX    TMP DP  RH WIND       PRES   REMARKS
WILLISTON      PTCLDY    66  62  87 W7        29.76R
MINOT          CLOUDY    65  62  90 NE6       29.76R
$$

NDZ018>021-031>035-040>046-210400-
SOUTHWEST NORTH DAKOTA

CITY           SKY/WX    TMP DP  RH WIND       PRES   REMARKS
BISMARCK       CLOUDY    72  70  93 E8        29.69F
GARRISON         N/A     67  65  93 N3        29.76R
HETTINGER ARPT CLEAR     61  59  93 NW5       29.79S
$$

NDZ004>008-012>016-024-026-027-054-210400-
NORTHEAST NORTH DAKOTA

CITY           SKY/WX    TMP DP  RH WIND       PRES   REMARKS
GRAND FORKS    MOCLDY    74  67  78 SE9       29.77R
DEVILS LAKE    CLOUDY    73  64  73 SE9       29.77R
$$

NDZ022-023-025-028>030-036>039-047>053-210400-
SOUTHEAST NORTH DAKOTA

CITY           SKY/WX    TMP DP  RH WIND       PRES   REMARKS
FARGO          MOCLDY    74  67  78 SE13      29.78S
$$




USA.gov is the U.S. government's official web portal to all federal, state and local government web resources and services.